Regional Weather Roundup
Issued by NWS

Home | Current Version | Previous Version | Graphics & Text | Print | Product List | Glossary On
Versions: 1 2 3 4 5 6 7 8 9 10 11 12 13 14 15 16 17 18 19 20 21 22 23 24 25 26 27 28
000
ASUS45 KTFX 160110
RWRMT
MONTANA REGIONAL WEATHER ROUNDUP
NATIONAL WEATHER SERVICE GREAT FALLS MT
700 PM MDT SUN OCT 15 2017

NOTE: "FAIR" INDICATES FEW OR NO CLOUDS BELOW 12000 FEET WITH NO
SIGNIFICANT WEATHER AND/OR OBSTRUCTIONS TO VISIBILITY.

MTZ001>007-043-160200-
WEST OF THE DIVIDE

CITY           SKY/WX    TMP DP  RH WIND       PRES   REMARKS
KALISPELL      PTCLDY    47  33  58 SW3       30.24F
MISSOULA       CLEAR     53  33  46 CALM      30.25F
BUTTE          CLEAR     53  28  38 VRB3      30.30S
MULLAN PASS    PTCLDY    38  29  70 SW6       30.30F
ANACONDA         N/A     54  27  35 S7        30.27F
DEER LODGE       N/A     52  30  43 CALM      30.29R
EUREKA           N/A     52  34  50 MISG      30.21
HAMILTON         N/A     57  32  38 CALM      30.25S
LIBBY            N/A     48  37  66 CALM      30.23S
$$

MTZ008-052>055-160200-
SOUTHWEST MONTANA

CITY           SKY/WX    TMP DP  RH WIND       PRES   REMARKS
BOZEMAN        CLEAR     54  30  40 CALM      30.27F
DILLON         CLOUDY    50  28  42 S9        30.29F
W YELLOWSTONE  CLOUDY    39  21  48 SW3       30.44S
ENNIS          CLEAR     50  27  40 S15G22    30.37S
THREE FORKS      N/A     54  28  36 SW5       30.23S
$$

MTZ009-010-012-014-046-048-049-054-160200-
EAST SLOPES AND CENTRAL MONTANA

CITY           SKY/WX    TMP DP  RH WIND       PRES   REMARKS
CUT BANK       CLEAR     50  31  48 SW18      30.09S
GREAT FALLS    CLEAR     53  30  41 SW14      30.14F
MALMSTROM AFB  CLEAR     57  30  35 SW18G29   30.13F
HELENA         CLEAR     57  33  40 S7        30.21S
BOWMANS CRNR     N/A     51  29  44 S20       30.16F
CHOTEAU          N/A     54  32  43 W9        30.14F
POWER            N/A     52  30  43 SW13      30.12F
RAYNESFORD       N/A     57  29  34 W14G20    30.15F
$$

MTZ011-013-016-021-045-047-050-051-160200-
NORTH CENTRAL MONTANA

CITY           SKY/WX    TMP DP  RH WIND       PRES   REMARKS
HAVRE          CLEAR     53  34  48 SW13      30.04F
N BAR RANCH      N/A     52  28  40 SW12      30.20R
CHINOOK          N/A     55  34  44 CALM      30.04F
GEYSER           N/A     50  31  46 SW9       30.15F
GRASS RANGE      N/A     51  31  45 W8        30.12F
JUDITH GAP       N/A     51  29  41 SW13      30.20F
WINIFRED       MOCLDY    55  32  42 W9        30.12F
$$

MTZ017>020-022>027-061-062-160200-
NORTHEAST MONTANA

CITY           SKY/WX    TMP DP  RH WIND       PRES   REMARKS
GLASGOW        CLEAR     49  31  49 S7        30.10F
JORDAN           N/A     48  31  51 CALM      30.13S
SIDNEY         CLEAR     42  29  59 W7        30.16S
WOLF POINT     CLEAR     51  30  44 S5        30.13F
MALTA          CLEAR     52  34  50 CALM      30.06F
PLENTYWOOD       N/A     48  27  43 CALM      30.11S
POPLAR           N/A     52  28  40 SW5       30.14
$$

MTZ028>42-056>058-160200-
SOUTHCENTRAL AND SOUTHEAST MONTANA

CITY           SKY/WX    TMP DP  RH WIND       PRES   REMARKS
BAKER          CLEAR     45  30  55 SW7       30.21F
BILLINGS       PTCLDY    57  28  33 SW16      30.20S
LIVINGSTON     CLEAR     49  30  48 SW9       30.25F
MILES CITY     CLEAR     55  31  39 S6        30.17F
BIG TIMBER     CLEAR     57  27  30 W17       30.25R
FORSYTH          N/A     52  30  43 CALM      30.17F
HARLOWTON        N/A     54  28  37 MISG      30.20F
$$

REGIONAL REPORTS...DAKOTAS

CITY           SKY/WX    TMP DP  RH WIND       PRES   REMARKS
WILLISTON      CLEAR     45  28  51 W7        30.14F
MINOT          CLEAR     45  29  53 S3        30.12S
DICKINSON      CLEAR     41  25  53 W7        30.18S
BEACH            N/A     45  27  49 W8        30.22S
CROSBY           N/A     37  27  65 SW7       30.11F
TIOGA            N/A     45  28  53 SW12      30.14F
BISMARCK       CLEAR     44  28  53 CALM      30.21R
GRAND FORKS    PTCLDY    44  35  70 SW5       30.12R
FARGO          MOCLDY    45  36  70 N6        30.15R
BUFFALO SD       N/A     50  28  42 W7        30.18S
RAPID CITY     CLEAR     44  28  53 CALM      30.29R
$$

REGIONAL REPORTS...WYOMING/IDAHO/WASHINGTON

CITY           SKY/WX    TMP DP  RH WIND       PRES   REMARKS
GILLETTE       CLEAR     36  28  73 S5        30.27S
SHERIDAN       CLEAR     44  30  57 SW6       30.24F
BUFFALO WY     CLEAR     43  24  47 W7        30.29S
CODY           CLEAR     50  25  37 SE10      30.30S
YELLOWSTONE LA   N/A     31  26  82 NW3       30.49R
IDAHO FALLS    CLOUDY    43  32  65 NW3       30.42F
SALMON         CLOUDY    49  30  48 CALM      30.32F
BOISE          MOCLDY    54  29  38 W3        30.34S
SPOKANE        MOCLDY    55  31  39 S7        30.26F
$$

REGIONAL REPORTS...ALBERTA

CITY           SKY/WX    TMP DP  RH WIND       PRES   REMARKS
EDMONTON       PTCLDY    54  32  43 SW6       29.75S
CALGARY        PTCLDY    59  18  20 W26       29.88F
LETHBRIDGE     MOCLDY    54  32  43 SW29G36   29.98F
MEDICINE HAT   PTCLDY    55  34  44 SW17G26   29.92F
$$

REGIONAL REPORTS...SASKATCHEWAN

CITY           SKY/WX    TMP DP  RH WIND       PRES   REMARKS
SWIFT CURRENT  CLEAR     45  28  53 S12       29.96F
REGINA         PTCLDY    45  27  49 S7        30.02F
SASKATOON      MOCLDY    43  28  56 S9        29.92F
$$




USA.gov is the U.S. government's official web portal to all federal, state and local government web resources and services.